Weather History for VIAR - August, 2013

Change the Weather History Date:

Friday, August 16, 2013

  Actual Average Record
Temperature  
Mean Temperature 76 °F -  
Max Temperature 78 °F 92 °F 96 °F (1999)
Min Temperature 74 °F 78 °F 73 °F (2008)
Cooling Degree Days 11    
Growing Degree Days 26 (Base 50)    
Moisture  
Dew Point 78 °F    
Average Humidity 99    
Maximum Humidity 100    
Minimum Humidity 94    
Precipitation  
Precipitation 0.00 in - - ()
Sea Level Pressure  
Sea Level Pressure 29.59 in    
Wind  
Wind Speed 3 mph ()    
Max Wind Speed 5 mph    
Max Gust Speed -    
Visibility 2.1 miles    
Events Rain , Thunderstorm    
Averages and records for this station are not official NWS values.
T = Trace of Precipitation, MM = Missing Value Source: Averaged Metar Reports

Daily Weather History Graph

Daily Weather History Graph

Search for Another Location

Airport or City:

Trip Planner

Search our weather history database for the weather conditions in past years. The results will help you decide how hot, cold, wet, or windy it might be!

Date:

Astronomy

Aug. 16, 2013 Rise Set
Actual Time 5:56 AM IST 7:13 PM IST
Civil Twilight 5:30 AM IST 7:38 PM IST
Nautical Twilight 5:00 AM IST 8:09 PM IST
Astronomical Twilight 4:28 AM IST 8:41 PM IST
Moon 2:57 PM IST (8/16) 12:40 AM IST (8/16)
Length of Visible Light 14h 08m
Length of Day
13h 17m
Waxing Gibbous, 70% of the Moon is Illuminated
Aug 16
Waxing Gibbous
Aug 21
Full
Aug 28
Last Quarter
Sep 5
New
Sep 12
First Quarter

Hourly Weather History & Observations

Time (IST) Temp. Dew Point Humidity Pressure Visibility Wind Dir Wind Speed Gust Speed Precip Events Conditions
1:00 AM 77.0 °F 77.0 °F 100% 29.62 in 2.8 mi SE 4.6 mph - N/A   Light Drizzle
2:30 AM 77 °F 77 °F 98% 29.58 in 1 mi SSE 3.5 mph - - Rain Light Drizzle
3:00 AM 77.0 °F 77.0 °F 100% 29.62 in 2.2 mi SSE 3.5 mph - N/A   Light Drizzle
3:30 AM 77.0 °F 77.0 °F 100% 29.62 in 2.2 mi SSE 3.5 mph - N/A   Light Drizzle
5:30 AM 77.0 °F 77.0 °F 100% 29.59 in 1.2 mi Variable 2.3 mph - N/A   Light Drizzle
8:30 AM 77 °F 77 °F 98% 29.62 in 1 mi ESE 3.5 mph - - Rain , Thunderstorm Thunderstorms and Rain
11:00 AM 77.0 °F 77.0 °F 100% 29.62 in 1.2 mi SE 3.5 mph - N/A Rain Rain
12:00 PM 78.8 °F 77.0 °F 94% 29.62 in 1.9 mi NE 4.6 mph - N/A   Mostly Cloudy
12:30 PM 78.8 °F 77.0 °F 94% 29.62 in 2.5 mi ESE 4.6 mph - N/A Rain Light Rain
1:00 PM 77.0 °F 77.0 °F 100% 29.62 in 2.5 mi ESE 3.5 mph - N/A Rain Rain
1:30 PM 77.0 °F 77.0 °F 100% 29.62 in 2.5 mi NE 4.6 mph - N/A Rain Rain
2:00 PM 77.0 °F 77.0 °F 100% 29.62 in 2.5 mi ESE 3.5 mph - N/A Rain Rain
4:30 PM 78.8 °F 78.8 °F 100% 29.53 in 3.1 mi NE 3.5 mph - N/A   Drizzle
6:00 PM 78.8 °F 78.8 °F 100% 29.53 in 3.1 mi ESE 3.5 mph - N/A   Light Drizzle
8:30 PM 78.8 °F 78.8 °F 100% 29.56 in 1.9 mi ESE 3.5 mph - N/A   Light Drizzle
9:30 PM 78.8 °F 78.8 °F 100% 29.56 in 1.9 mi ESE 3.5 mph - N/A   Light Drizzle
10:00 PM 78.8 °F 78.8 °F 100% 29.56 in 1.9 mi ESE 3.5 mph - N/A   Light Drizzle
10:30 PM 78.8 °F 78.8 °F 100% 29.56 in 1.9 mi ESE 3.5 mph - N/A   Light Drizzle
11:00 PM 78.8 °F 78.8 °F 100% 29.56 in 2.2 mi East 4.6 mph - N/A   Light Drizzle
11:30 PM 77.0 °F 77.0 °F 100% 29.59 in 2.2 mi Calm Calm - N/A   Light Drizzle